DW5621 Weather Reports


Display with metric or nautical units.
time (UTC)temp
F
wind
direction
speed
MPH
gust
MPH
rain 1hr
in
rain 24hr
in
rain mn
in
humidity
%
barometer
mb
20260507043637 48 0 0.0 0.0 0.00 0.00 0.00 80 1015.1
20260507042737 48 0 0.0 0.0 0.00 0.00 0.00 80 1015.2
20260507041837 48 0 0.0 2.0 0.00 0.00 0.00 80 1015.2
20260507040937 48 80 0.0 2.0 0.00 0.00 0.00 80 1015.2
20260507040038 48 79 0.0 4.0 0.00 0.00 0.00 80 1015.1
20260507035438 48 76 0.0 4.0 0.00 0.00 0.00 80 1015.1
20260507034538 49 76 0.0 2.0 0.00 0.00 0.00 80 1015.0
20260507033637 49 76 0.0 4.0 0.00 0.00 0.00 80 1015.1
20260507032759 49 76 0.0 4.0 0.00 0.00 0.00 80 1015.0
20260507031837 49 77 1.0 6.0 0.00 0.00 0.00 80 1015.1
20260507030938 48 96 1.0 6.0 0.00 0.00 0.00 81 1015.0
20260507030058 48 83 1.0 6.0 0.00 0.00 0.00 82 1015.0
20260507025437 48 72 0.0 4.0 0.00 0.00 0.00 83 1015.0
20260507024537 48 44 0.0 4.0 0.00 0.00 0.00 84 1015.0
20260507023659 48 56 1.0 4.0 0.00 0.00 0.00 84 1015.0
20260507022738 48 34 1.0 4.0 0.00 0.00 0.00 84 1015.0
20260507021837 48 22 0.0 4.0 0.00 0.00 0.00 84 1015.0
20260507020958 48 359 0.0 2.0 0.00 0.00 0.00 84 1014.9
20260507020037 48 355 1.0 4.0 0.00 0.00 0.00 84 1014.9
20260507015437 48 356 1.0 4.0 0.00 0.00 0.00 83 1014.9
20260507014537 48 15 1.0 4.0 0.00 0.00 0.00 83 1014.8
20260507013637 49 23 0.0 1.0 0.00 0.00 0.00 82 1014.8
20260507012737 49 23 0.0 2.0 0.00 0.00 0.00 82 1014.9
20260507011837 49 20 0.0 2.0 0.00 0.00 0.00 82 1014.9
20260507010937 49 14 0.0 2.0 0.00 0.00 0.00 82 1015.5
20260507010037 49 14 0.0 2.0 0.00 0.00 0.00 82 1014.9
20260507005437 49 13 0.0 2.0 0.00 0.00 0.00 82 1014.8
20260507004537 49 333 0.0 4.0 0.00 0.00 0.00 83 1014.9
20260507003658 49 333 1.0 4.0 0.00 0.00 0.00 83 1015.0
20260507002737 49 354 1.0 4.0 0.00 0.00 0.00 82 1015.0
20260507001858 49 47 1.0 4.0 0.00 0.00 0.00 82 1014.9
20260507000937 49 61 0.0 2.0 0.00 0.00 0.00 82 1014.9
20260507000037 49 61 0.0 2.0 0.00 0.00 0.00 81 1014.9
20260506235437 49 61 0.0 2.0 0.00 0.00 0.00 81 1014.9
20260506234537 49 61 0.0 2.0 0.00 0.00 0.00 81 1014.8
20260506233637 49 61 0.0 2.0 0.00 0.00 0.00 80 1014.8
20260506232737 49 61 0.0 2.0 0.00 0.00 0.00 80 1014.8
20260506231837 49 63 0.0 4.0 0.00 0.00 0.00 80 1014.8
20260506230937 49 33 1.0 4.0 0.00 0.00 0.00 80 1014.8
20260506230038 49 9 1.0 4.0 0.00 0.00 0.00 80 1014.8
20260506225437 50 24 1.0 5.0 0.00 0.00 0.00 80 1014.6
20260506224537 50 39 1.0 5.0 0.00 0.00 0.00 79 1014.7
20260506223637 50 12 1.0 5.0 0.00 0.00 0.00 79 1014.8
20260506222737 50 349 1.0 5.0 0.00 0.00 0.00 78 1014.7
20260506221837 50 353 1.0 6.0 0.00 0.00 0.00 78 1014.6
20260506220958 50 345 2.0 6.0 0.00 0.00 0.00 77 1014.7
20260506220037 50 24 1.0 6.0 0.00 0.00 0.00 77 1014.5
20260506215458 50 11 2.0 6.0 0.00 0.00 0.00 77 1014.6
20260506214537 50 14 2.0 6.0 0.00 0.00 0.00 76 1014.5
20260506213637 51 25 2.0 6.0 0.00 0.00 0.00 76 1014.5
20260506212737 51 1 3.0 7.0 0.00 0.00 0.00 75 1014.5
20260506211837 51 344 3.0 10.0 0.00 0.00 0.00 74 1014.5
20260506210937 51 349 3.0 10.0 0.00 0.00 0.00 73 1014.5
20260506210058 51 359 2.0 12.0 0.00 0.00 0.00 72 1014.3
20260506205437 51 1 3.0 12.0 0.00 0.00 0.00 72 1014.3
20260506204537 52 347 3.0 12.0 0.00 0.00 0.00 71 1014.3
20260506203637 52 338 3.0 10.0 0.00 0.00 0.00 70 1014.2
20260506202737 52 3 2.0 6.0 0.00 0.00 0.00 68 1014.3
20260506201837 52 353 2.0 7.0 0.00 0.00 0.00 67 1014.2
20260506200937 52 1 3.0 10.0 0.00 0.00 0.00 67 1014.1
20260506200037 53 350 4.0 11.0 0.00 0.00 0.00 66 1014.0
20260506195437 53 356 3.0 11.0 0.00 0.00 0.00 66 1014.0
20260506194537 53 354 3.0 10.0 0.00 0.00 0.00 65 1013.9
20260506193637 53 347 3.0 12.0 0.00 0.00 0.00 65 1013.8
20260506192737 53 357 3.0 10.0 0.00 0.00 0.00 64 1013.6
20260506191837 53 360 2.0 10.0 0.00 0.00 0.00 63 1013.6
20260506190937 53 350 3.0 10.0 0.00 0.00 0.00 63 1013.5
20260506190037 54 357 3.0 10.0 0.00 0.00 0.00 62 1013.4
20260506185437 54 3 3.0 11.0 0.00 0.00 0.00 62 1013.4
20260506184537 54 5 2.0 11.0 0.00 0.00 0.00 61 1013.4
20260506183658 54 358 3.0 10.0 0.00 0.00 0.00 61 1013.4
20260506182758 54 9 2.0 8.0 0.00 0.00 0.00 61 1013.2
20260506181837 54 14 3.0 10.0 0.00 0.00 0.00 60 1013.1
20260506180937 54 8 3.0 10.0 0.00 0.00 0.00 61 1012.9
20260506180037 54 28 2.0 8.0 0.00 0.00 0.00 61 1013.0
20260506175437 54 40 2.0 8.0 0.00 0.00 0.00 60 1012.8
20260506174537 54 54 2.0 6.0 0.00 0.00 0.00 60 1012.7
20260506173637 54 79 2.0 8.0 0.00 0.00 0.00 61 1012.7
20260506172737 54 76 1.0 5.0 0.00 0.00 0.00 61 1012.6
20260506171837 54 105 1.0 6.0 0.00 0.00 0.00 62 1012.7
20260506170937 54 76 3.0 10.0 0.00 0.00 0.00 61 1012.6
20260506170037 55 77 2.0 7.0 0.00 0.00 0.00 61 1012.5
20260506165437 55 90 1.0 7.0 0.00 0.00 0.00 60 1012.5
20260506164537 55 57 2.0 7.0 0.00 0.00 0.00 60 1012.4
20260506163637 55 7 3.0 12.0 0.00 0.00 0.00 56 1012.5
20260506162737 55 343 3.0 12.0 0.00 0.00 0.00 57 1012.4
20260506161858 55 341 3.0 12.0 0.00 0.00 0.00 58 1012.5
20260506160937 55 335 3.0 11.0 0.00 0.00 0.00 58 1012.5
20260506160037 55 338 3.0 11.0 0.00 0.00 0.00 57 1012.5
20260506155437 55 339 3.0 11.0 0.00 0.00 0.00 58 1012.6
20260506154537 55 340 3.0 12.0 0.00 0.00 0.00 58 1012.6
20260506153637 55 6 3.0 10.0 0.00 0.00 0.00 58 1012.6
20260506152758 55 11 3.0 10.0 0.00 0.00 0.00 58 1012.5
20260506151858 55 359 4.0 12.0 0.00 0.00 0.00 59 1012.6
20260506150937 55 345 3.0 11.0 0.00 0.00 0.00 59 1012.6
20260506150037 56 348 4.0 13.0 0.00 0.00 0.00 58 1012.4
20260506145437 56 353 3.0 13.0 0.00 0.00 0.00 58 1012.5
20260506144558 56 344 3.0 11.0 0.00 0.00 0.00 59 1012.6
20260506143637 55 331 3.0 11.0 0.00 0.00 0.00 61 1012.5
20260506142737 55 352 3.0 10.0 0.00 0.00 0.00 62 1012.6
20260506141858 55 329 4.0 11.0 0.00 0.00 0.00 62 1012.7
20260506140958 55 331 4.0 13.0 0.00 0.00 0.00 64 1012.7
20260506140037 54 335 4.0 13.0 0.00 0.00 0.00 64 1012.7
20260506135437 54 331 4.0 13.0 0.00 0.00 0.00 65 1012.7
20260506134558 53 334 4.0 12.0 0.00 0.00 0.00 66 1012.7
20260506133637 53 349 3.0 11.0 0.00 0.00 0.00 68 1012.9
20260506132737 53 331 4.0 13.0 0.00 0.00 0.00 67 1012.9
20260506131837 54 355 5.0 12.0 0.00 0.00 0.00 64 1012.9
20260506130937 55 350 3.0 13.0 0.00 0.00 0.00 63 1012.8
20260506130037 55 340 3.0 16.0 0.00 0.00 0.00 63 1012.7
20260506125437 55 344 4.0 16.0 0.00 0.00 0.00 62 1012.8
20260506124537 55 349 5.0 12.0 0.00 0.00 0.00 61 1012.7
20260506123637 55 355 4.0 13.0 0.00 0.00 0.00 62 1012.8
20260506122737 55 9 4.0 12.0 0.00 0.00 0.00 60 1012.7
20260506121837 55 343 5.0 14.0 0.00 0.00 0.00 59 1012.7
20260506120937 55 349 4.0 14.0 0.00 0.00 0.00 60 1012.7
20260506120037 55 345 5.0 16.0 0.00 0.00 0.00 59 1012.7
20260506115437 56 339 5.0 16.0 0.00 0.00 0.00 60 1012.8
20260506114558 56 345 5.0 18.0 0.00 0.00 0.00 61 1012.8
20260506113657 55 347 5.0 18.0 0.00 0.00 0.00 61 1012.7
20260506112758 55 335 5.0 13.0 0.00 0.00 0.00 62 1012.7
20260506111836 54 8 5.0 16.0 0.00 0.00 0.00 63 1012.8
20260506110936 54 353 5.0 16.0 0.00 0.00 0.00 61 1012.8
20260506110037 55 344 5.0 17.0 0.00 0.00 0.00 61 1012.8
20260506105436 55 351 4.0 17.0 0.00 0.00 0.00 61 1012.7
20260506104537 55 341 4.0 13.0 0.00 0.00 0.00 59 1012.7
20260506103657 55 329 5.0 14.0 0.00 0.00 0.00 59 1012.9
20260506102736 54 342 5.0 14.0 0.00 0.00 0.00 60 1012.7
20260506101836 55 334 5.0 14.0 0.00 0.00 0.00 59 1012.6
20260506100958 54 330 4.0 13.0 0.00 0.00 0.00 61 1012.8
20260506100036 54 333 5.0 13.0 0.00 0.00 0.00 61 1012.8
20260506095457 53 353 4.0 12.0 0.00 0.00 0.00 62 1012.9
20260506094537 53 355 4.0 12.0 0.00 0.00 0.00 62 1013.1
20260506093657 53 340 4.0 13.0 0.00 0.00 0.00 63 1013.0
20260506092757 52 343 4.0 16.0 0.00 0.00 0.00 64 1013.0
20260506091857 51 333 5.0 17.0 0.00 0.00 0.00 64 1013.0
20260506090936 53 326 5.0 16.0 0.00 0.00 0.00 62 1012.9
20260506090037 54 348 5.0 16.0 0.00 0.00 0.00 61 1012.9
20260506085436 54 352 5.0 17.0 0.00 0.00 0.00 61 1012.8
20260506084536 53 342 5.0 17.0 0.00 0.00 0.00 62 1012.8
20260506083636 52 339 6.0 17.0 0.00 0.00 0.00 63 1012.8
20260506082736 53 355 4.0 14.0 0.00 0.00 0.00 65 1012.6
20260506081836 52 357 5.0 14.0 0.00 0.00 0.00 67 1012.7
20260506080936 51 4 5.0 14.0 0.00 0.00 0.00 68 1012.9
20260506072736 49 348 4.0 12.0 0.00 0.00 0.00 74 1012.7
20260506071836 49 332 4.0 12.0 0.00 0.00 0.00 75 1012.8
20260506070957 48 347 3.0 11.0 0.00 0.00 0.00 76 1012.7
20260506061836 47 351 5.0 13.0 0.00 0.00 0.00 78 1012.6
20260506060936 47 359 3.0 11.0 0.00 0.00 0.00 78 1012.5
20260506050936 47 352 4.0 10.0 0.00 0.00 0.00 76 1012.2
20260506044536 47 4 2.0 10.0 0.00 0.00 0.00 76 1012.1